Abha, Saudi Arabia

4:19 PM +03 on September 18, 2019 (GMT +0300)
Abha

Weather History for OEAB - May, 2019

Change the Weather History Date:

Friday, May 31, 2019

  Actual Average Record
Temperature  
Mean Temperature 74 °F -  
Max Temperature 87 °F 84 °F 91 °F (2017)
Min Temperature 60 °F 61 °F 59 °F (1997)
Cooling Degree Days 8    
Growing Degree Days 24 (Base 50)    
Moisture  
Dew Point 42 °F    
Average Humidity 35    
Maximum Humidity 59    
Minimum Humidity 13    
Precipitation  
Precipitation 0.00 in - - ()
Sea Level Pressure  
Sea Level Pressure 30.17 in    
Wind  
Wind Speed 5 mph ()    
Max Wind Speed 18 mph    
Max Gust Speed -    
Visibility 6.2 miles    
Events Thunderstorm    
Averages and records for this station are not official NWS values.
T = Trace of Precipitation, MM = Missing Value Source: Averaged Metar Reports

Daily Weather History Graph

Daily Weather History Graph

Search for Another Location

Airport or City:

Astronomy

May. 31, 2019 Rise Set
Actual Time 5:32 AM +03 6:41 PM +03
Civil Twilight 5:08 AM +03 7:05 PM +03
Nautical Twilight 4:40 AM +03 7:33 PM +03
Astronomical Twilight 4:11 AM +03 8:02 PM +03
Moon 3:18 AM +03 (5/31) 3:59 PM +03 (5/31)
Length of Visible Light 13h 56m
Length of Day
13h 08m
Waning Crescent, 10% of the Moon is Illuminated
May 31
Waning Crescent
Jun 3
New
Jun 10
First Quarter
Jun 17
Full
Jun 25
Last Quarter

Hourly Weather History & Observations

Time (+03) Temp. Dew Point Humidity Pressure Visibility Wind Dir Wind Speed Gust Speed Precip Events Conditions
12:00 AM 66.2 °F 50.0 °F 56% 30.21 in - Calm Calm - N/A   Clear
1:00 AM 64.4 °F 48.2 °F 56% 30.18 in - Calm Calm - N/A   Clear
2:00 AM 62.6 °F 48.2 °F 59% 30.18 in - Calm Calm - N/A   Clear
4:00 AM 62.6 °F 48.2 °F 59% 30.18 in - Calm Calm - N/A   Clear
5:00 AM 62.6 °F 46.4 °F 55% 30.18 in - Calm Calm - N/A   Clear
6:00 AM 61 °F 45 °F 44%  in 6 mi Calm Calm - -  
6:00 AM 60.8 °F 44.6 °F 55% 30.18 in - Calm Calm - N/A   Clear
7:00 AM 68.0 °F 48.2 °F 49% 30.18 in - Calm Calm - N/A   Clear
8:00 AM 75.2 °F 42.8 °F 31% 30.21 in - East 4.6 mph - N/A   Clear
9:00 AM 77.0 °F 41.0 °F 28% 30.21 in - East 12.7 mph - N/A   Clear
10:00 AM 82.4 °F 37.4 °F 20% 30.21 in 6.2 mi ENE 11.5 mph - N/A   Partly Cloudy
11:00 AM 84.2 °F 33.8 °F 16% 30.21 in 6.2 mi NE 15.0 mph - N/A   Scattered Clouds
12:00 PM 86.0 °F 35.6 °F 17% 30.18 in 6.2 mi NE 15.0 mph - N/A   Scattered Clouds
1:00 PM 84.2 °F 32.0 °F 15% 30.18 in 6.2 mi ENE 16.1 mph - N/A   Scattered Clouds
2:00 PM 87.8 °F 30.2 °F 13% 30.15 in 6.2 mi ENE 15.0 mph - N/A   Scattered Clouds
3:00 PM 84.2 °F 33.8 °F 16% 30.15 in 6.2 mi East 13.8 mph - N/A   Partly Cloudy
4:00 PM 84.2 °F 33.8 °F 16% 30.12 in 6.2 mi East 18.4 mph - N/A   Partly Cloudy
5:00 PM 80.6 °F 33.8 °F 18% 30.12 in 6.2 mi NE 15.0 mph - N/A   Partly Cloudy
6:00 PM 77.0 °F 57.2 °F 50% 30.12 in 6.2 mi NNE 6.9 mph - N/A   Partly Cloudy
7:00 PM 78.8 °F 32.0 °F 18% 30.12 in 6.2 mi NE 8.1 mph - N/A   Scattered Clouds
8:00 PM 77.0 °F 33.8 °F 21% 30.15 in 6.2 mi ENE 8.1 mph - N/A   Scattered Clouds
9:00 PM 75.2 °F 33.8 °F 22% 30.18 in 6.2 mi ENE 4.6 mph - N/A   Scattered Clouds
10:00 PM 75.2 °F 53.6 °F 47% 30.18 in 6.2 mi ESE 5.8 mph - N/A   Scattered Clouds
11:00 PM 73.4 °F 57.2 °F 57% 30.21 in 6.2 mi South 13.8 mph - N/A Thunderstorm Thunderstorm